When you browse on this site, cookies collect data to enhance your experience and personalize the content and advertising you see.
Visit our Privacy Policy to learn more. By continuing to use the site, you agree to this use of cookies and data.
  • In Czech Republic
  • List of Countries
  • For 7 days
  • Water Temperature
  • Weather Map
  • Weather Widgets
  • user-avatar
    Login

    Hourly Weather Perekol

    Today, 28 May, Thursday

    Time Temperature Precipitation Wind Pressure Humidity
    00:00 +10°C° 0 mm 0 mps 753 mmHg 85%
    01:00 +10°C° 0 mm 0 mps 753 mmHg 86%
    02:00 +11°C° 0 mm 1 mps 753 mmHg 85%
    03:00 +10°C° 0 mm 0 mps 753 mmHg 85%
    04:00 +10°C° 0 mm 0 mps 753 mmHg 86%
    05:00 +10°C° 0 mm 0 mps 753 mmHg 86%
    06:00 +12°C° 0 mm 0 mps 753 mmHg 81%
    07:00 +15°C° 0 mm 1 mps 753 mmHg 75%
    08:00 +18°C° 0 mm 1 mps 753 mmHg 69%
    09:00 +19°C° 0.2 mm 1 mps 752 mmHg 63%
    10:00 +19°C° 0.2 mm 2 mps 752 mmHg 57%
    11:00 +20°C° 0.2 mm 2 mps 752 mmHg 51%
    12:00 +20°C° 0.2 mm 2 mps 752 mmHg 52%
    13:00 +20°C° 0.2 mm 3 mps 751 mmHg 53%
    14:00 +20°C° 0 mm 2 mps 751 mmHg 53%
    15:00 +20°C° 0.2 mm 3 mps 751 mmHg 56%
    16:00 +20°C° 0.2 mm 3 mps 750 mmHg 60%
    17:00 +19°C° 0.2 mm 3 mps 750 mmHg 63%
    18:00 +18°C° 0.1 mm 3 mps 750 mmHg 70%
    19:00 +16°C° 0.1 mm 2 mps 750 mmHg 77%
    20:00 +14°C° 0.1 mm 2 mps 750 mmHg 84%
    21:00 +13°C° 0 mm 2 mps 750 mmHg 86%
    22:00 +13°C° 0 mm 2 mps 749 mmHg 88%
    23:00 +12°C° 0 mm 2 mps 749 mmHg 90%

    Tomorrow, 29 May, Friday

    Time Temperature Precipitation Wind Pressure Humidity
    00:00 +12°C° 0.2 mm 2 mps 748 mmHg 90%
    01:00 +11°C° 0.2 mm 3 mps 748 mmHg 90%
    02:00 +11°C° 0.2 mm 4 mps 747 mmHg 90%
    03:00 +11°C° 2.1 mm 4 mps 747 mmHg 92%
    04:00 +11°C° 2.1 mm 4 mps 746 mmHg 94%
    05:00 +10°C° 2.1 mm 5 mps 746 mmHg 96%
    06:00 +10°C° 1 mm 5 mps 746 mmHg 95%
    07:00 +10°C° 1 mm 6 mps 746 mmHg 93%
    08:00 +10°C° 1 mm 7 mps 746 mmHg 92%
    09:00 +10°C° 0.4 mm 6 mps 745 mmHg 92%
    10:00 +10°C° 0.4 mm 6 mps 745 mmHg 92%
    11:00 +11°C° 0.4 mm 6 mps 745 mmHg 92%
    12:00 +11°C° 0.1 mm 7 mps 745 mmHg 91%
    13:00 +11°C° 0.1 mm 7 mps 745 mmHg 90%
    14:00 +12°C° 0.1 mm 7 mps 745 mmHg 89%
    15:00 +12°C° 0 mm 7 mps 745 mmHg 87%
    16:00 +14°C° 0 mm 7 mps 744 mmHg 86%
    17:00 +14°C° 0 mm 7 mps 744 mmHg 85%
    18:00 +14°C° 0.2 mm 6 mps 744 mmHg 86%
    19:00 +14°C° 0.2 mm 6 mps 744 mmHg 87%
    20:00 +14°C° 0.2 mm 6 mps 744 mmHg 88%
    21:00 +13°C° 0.4 mm 6 mps 744 mmHg 90%
    22:00 +13°C° 0.4 mm 6 mps 743 mmHg 92%
    23:00 +13°C° 0.4 mm 5 mps 743 mmHg 95%

    Day after tomorrow, 30 May, Saturday

    Time Temperature Precipitation Wind Pressure Humidity
    00:00 +13°C° 0.2 mm 5 mps 743 mmHg 95%
    01:00 +13°C° 0.2 mm 5 mps 743 mmHg 95%
    02:00 +13°C° 0.2 mm 4 mps 743 mmHg 96%
    03:00 +13°C° 0.2 mm 5 mps 743 mmHg 96%
    04:00 +13°C° 0.2 mm 5 mps 743 mmHg 96%
    05:00 +13°C° 0.2 mm 5 mps 742 mmHg 96%
    06:00 +14°C° 0.4 mm 5 mps 742 mmHg 96%
    07:00 +14°C° 0.4 mm 5 mps 742 mmHg 96%
    08:00 +15°C° 0.4 mm 5 mps 742 mmHg 96%
    09:00 +15°C° 0.6 mm 5 mps 742 mmHg 95%
    10:00 +15°C° 0.6 mm 6 mps 742 mmHg 94%
    11:00 +16°C° 0.6 mm 6 mps 741 mmHg 93%
    12:00 +15°C° 0.4 mm 7 mps 741 mmHg 93%
    13:00 +15°C° 0.4 mm 7 mps 740 mmHg 93%
    14:00 +15°C° 0.4 mm 7 mps 740 mmHg 93%
    15:00 +15°C° 1 mm 8 mps 739 mmHg 94%
    16:00 +15°C° 1 mm 8 mps 739 mmHg 94%
    17:00 +15°C° 1 mm 8 mps 738 mmHg 94%
    18:00 +15°C° 0.5 mm 8 mps 738 mmHg 93%
    19:00 +16°C° 0.5 mm 8 mps 738 mmHg 92%
    20:00 +16°C° 0.5 mm 9 mps 738 mmHg 91%
    21:00 +16°C° 1.3 mm 8 mps 738 mmHg 92%
    22:00 +15°C° 1.3 mm 8 mps 738 mmHg 92%
    23:00 +15°C° 1.3 mm 8 mps 738 mmHg 93%

    31 May, Sunday

    Time Temperature Precipitation Wind Pressure Humidity
    00:00 +14°C° 0.9 mm 6 mps 739 mmHg 94%
    01:00 +13°C° 0.9 mm 5 mps 739 mmHg 95%
    02:00 +13°C° 0.9 mm 3 mps 740 mmHg 96%
    03:00 +12°C° 0.2 mm 3 mps 740 mmHg 96%
    04:00 +12°C° 0.2 mm 3 mps 741 mmHg 97%
    05:00 +12°C° 0.2 mm 3 mps 741 mmHg 97%
    06:00 +13°C° 0.4 mm 3 mps 742 mmHg 96%
    07:00 +13°C° 0.4 mm 3 mps 742 mmHg 94%
    08:00 +14°C° 0.4 mm 3 mps 743 mmHg 93%
    09:00 +14°C° 0.3 mm 4 mps 743 mmHg 91%
    10:00 +15°C° 0.3 mm 4 mps 744 mmHg 90%
    11:00 +15°C° 0.3 mm 5 mps 744 mmHg 89%
    12:00 +15°C° 0.3 mm 6 mps 745 mmHg 88%
    13:00 +15°C° 0.3 mm 6 mps 745 mmHg 87%
    14:00 +14°C° 0.3 mm 7 mps 745 mmHg 87%
    15:00 +14°C° 0.1 mm 6 mps 746 mmHg 86%
    16:00 +14°C° 0.1 mm 6 mps 746 mmHg 85%
    17:00 +13°C° 0.1 mm 5 mps 746 mmHg 84%
    18:00 +13°C° 0 mm 5 mps 747 mmHg 82%
    19:00 +13°C° 0 mm 5 mps 747 mmHg 81%
    20:00 +13°C° 0 mm 5 mps 748 mmHg 80%
    21:00 +12°C° 0 mm 4 mps 748 mmHg 84%
    22:00 +11°C° 0 mm 4 mps 749 mmHg 87%
    23:00 +10°C° 0 mm 4 mps 749 mmHg 91%

    1 June, Monday

    Time Temperature Precipitation Wind Pressure Humidity
    00:00 +10°C° 0 mm 4 mps 749 mmHg 91%
    01:00 +10°C° 0 mm 4 mps 750 mmHg 90%
    02:00 +10°C° 0 mm 4 mps 750 mmHg 90%
    03:00 +8°C° 0 mm 4 mps 750 mmHg 89%
    04:00 +8°C° 0 mm 4 mps 751 mmHg 88%
    05:00 +8°C° 0 mm 4 mps 751 mmHg 88%
    06:00 +11°C° 0 mm 4 mps 751 mmHg 83%
    07:00 +12°C° 0 mm 5 mps 752 mmHg 78%
    08:00 +13°C° 0 mm 5 mps 752 mmHg 73%
    09:00 +14°C° 0 mm 5 mps 752 mmHg 67%
    10:00 +16°C° 0 mm 5 mps 753 mmHg 61%
    11:00 +17°C° 0 mm 6 mps 753 mmHg 56%
    12:00 +17°C° 0 mm 6 mps 753 mmHg 55%
    13:00 +17°C° 0 mm 5 mps 753 mmHg 55%
    14:00 +17°C° 0 mm 5 mps 752 mmHg 55%
    15:00 +17°C° 0 mm 5 mps 752 mmHg 57%
    16:00 +17°C° 0 mm 5 mps 752 mmHg 60%
    17:00 +18°C° 0 mm 4 mps 752 mmHg 63%
    18:00 +16°C° 0 mm 3 mps 752 mmHg 69%
    19:00 +15°C° 0 mm 2 mps 752 mmHg 75%
    20:00 +13°C° 0 mm 1 mps 752 mmHg 81%
    21:00 +12°C° 0 mm 1 mps 752 mmHg 84%
    22:00 +12°C° 0 mm 1 mps 752 mmHg 87%
    23:00 +11°C° 0 mm 1 mps 752 mmHg 89%

    2 June, Tuesday

    Time Temperature Precipitation Wind Pressure Humidity
    00:00 +11°C° 0 mm 1 mps 752 mmHg 91%
    01:00 +10°C° 0 mm 1 mps 752 mmHg 92%
    02:00 +10°C° 0 mm 1 mps 752 mmHg 93%
    03:00 +9°C° 0 mm 2 mps 752 mmHg 93%
    04:00 +10°C° 0 mm 2 mps 752 mmHg 93%
    05:00 +10°C° 0 mm 2 mps 752 mmHg 92%
    06:00 +13°C° 0 mm 2 mps 752 mmHg 86%
    07:00 +14°C° 0 mm 3 mps 752 mmHg 79%
    08:00 +17°C° 0 mm 3 mps 752 mmHg 72%
    09:00 +18°C° 0.1 mm 3 mps 751 mmHg 69%
    10:00 +19°C° 0.1 mm 4 mps 751 mmHg 66%
    11:00 +20°C° 0.1 mm 4 mps 751 mmHg 63%
    12:00 +20°C° 0.4 mm 4 mps 751 mmHg 65%
    13:00 +20°C° 0.4 mm 4 mps 750 mmHg 68%
    14:00 +20°C° 0.4 mm 4 mps 750 mmHg 70%
    15:00 +19°C° 0.2 mm 4 mps 750 mmHg 70%
    16:00 +19°C° 0.2 mm 4 mps 750 mmHg 70%
    17:00 +19°C° 0.2 mm 3 mps 749 mmHg 70%
    18:00 +18°C° 0.1 mm 3 mps 749 mmHg 76%
    19:00 +16°C° 0.1 mm 2 mps 749 mmHg 83%
    20:00 +15°C° 0.1 mm 2 mps 749 mmHg 90%
    21:00 +14°C° 0 mm 2 mps 749 mmHg 91%
    22:00 +13°C° 0 mm 1 mps 750 mmHg 92%
    23:00 +12°C° 0 mm 1 mps 750 mmHg 93%
    Show more